User: anonymous   Login
Location: Kitchener
(43.2612°N, 80.5078°W)
Time: 19:18:12
(UTC+01:00)
Language:

Iridium 57 - Orbit

View from above orbital plane
View from above orbital plane
View from above satellite
View from above satellite

Ground track
Ground track

The orbit data is extracted from the following two-line orbital elements,

1 25273U 98019B   16338.53049322  .00000089  00000-0  24698-4 0  9995
2 25273  86.3965   9.1199 0002228  88.3149 271.8302 14.34247421978025
Epoch (UTC): 03 December 2016 12:43:54
Eccentricity: 0.0002228
inclination: 86.3965°
perigee height: 776 km
apogee height: 779 km
right ascension of ascending node: 9.1199°
argument of perigee: 88.3149°
revolutions per day: 14.34247421
mean anomaly at epoch: 271.8302°
orbit number at epoch: 97802

The dashed part of the orbit path shows where the satellite is in the earth's shadow,  

DLR